Regional Weather Roundup
Issued by NWS Columbia, SC

Home | Current Version | Previous Version | Text Only | Print | Product List | Glossary On
Versions: 1 2 3 4 5 6 7 8 9 10 11 12 13 14 15 16 17 18 19 20 21 22 23 24 25 26 27 28 29 30 31 32 33 34 35 36 37 38 39 40 41 42 43 44 45 46 47 48 49 50
000
ASUS42 KCAE 252010
RWRCAE
REGIONAL WEATHER ROUNDUP
NATIONAL WEATHER SERVICE COLUMBIA SC
300 PM EST SUN JAN 25 2015

NOTE: "FAIR" INDICATES FEW OR NO CLOUDS BELOW 12,000 FEET WITH NO
SIGNIFICANT WEATHER AND/OR OBSTRUCTIONS TO VISIBILITY.

NOT ALL STATIONS ARE QUALITY CONTROLLED BY THE NATIONAL
WEATHER SERVICE. USE DATA WITH CAUTION...ESPECIALLY
DEWPOINT OBSERVATIONS.

SCZ001>056-GAZ040-063>065-077-252100-
...UPSTATE SOUTH CAROLINA...

CITY           SKY/WX    TMP DP  RH WIND       PRES   REMARKS
ANDERSON       SUNNY     57  29  34 SW12      29.79F
LIBERTY        CLEAR     56  36  46 MISG      29.78F
SPARTANBURG    SUNNY     59  27  29 S6        29.77F
CLEMSON        SUNNY     58  28  32 W14       29.79F
GREENVILLE     SUNNY     56  27  32 SW13      29.79F
GREENWOOD      SUNNY     57  28  33 S9G18     29.81F
GREER          SUNNY     57  28  33 SW15      29.77F
ROCK HILL      SUNNY     57  31  37 SW13      29.80F
CHESTER        CLEAR     59  28  31 S8        29.81F
LAURENS        CLEAR     57  36  44 SW12G17   29.79F


...CENTRAL SOUTH CAROLINA...

CITY           SKY/WX    TMP DP  RH WIND       PRES   REMARKS
COLUMBIA APT   SUNNY     61  30  31 S12       29.82F
COLUMBIA OWENS SUNNY     61  30  31 SW9       29.84F
DARLINGTON     SUNNY     57  36  44 S13       29.86F
FLORENCE       SUNNY     59  33  37 S13       29.86F
MCENTIRE ANGB  MOSUNNY   61  31  31 S10       29.84F
ORANGEBURG     SUNNY     60  31  33 SW10G17   29.85F
SUMTER SHAW    SUNNY     59  33  37 S10       29.83F
NEWBERRY       CLEAR     55  28  35 SW15      29.84F
AIKEN          FAIR      59  30  33 S8G16     29.85F
BARNWELL       FAIR      63  32  31 SW10      29.86F
CAMDEN         FAIR      57  32  38 SE6       29.83F
LANCASTER      CLEAR     57  30  35 S6        29.82F
WINNSBORO      CLEAR     57  32  38 S7        29.82F


...EASTERN AND COASTAL SOUTH CAROLINA...

CITY           SKY/WX    TMP DP  RH WIND       PRES   REMARKS
MYRTLE BEACH   SUNNY     52  36  54 S13       29.93F
N MYRTLE BCH   SUNNY     51  34  52 SE7       29.91F
CONWAY         FAIR      57  32  38 SE8       29.89F
MARION         FAIR      55  32  41 S8        29.88F
HARTSVILLE     FAIR      61  23  23 S9        29.85F
FLORENCE       SUNNY     59  33  37 S13       29.86F
DARLINGTON     SUNNY     57  36  44 S13       29.86F
CHARLESTON APT MOSUNNY   57  35  43 S12       29.90F
MOUNT PLEASANT FAIR     N/A N/A N/A SE7       29.90F
WALTERBORO     CLEAR     61  28  29 S9        29.88F
BEAUFORT       MOSUNNY   56  39  53 SE8       29.90F


...EASTERN GEORGIA...

CITY           SKY/WX    TMP DP  RH WIND       PRES   REMARKS
AUGUSTA BUSH F SUNNY     61  29  29 SW8       29.84F
AUGUSTA DANIEL SUNNY     61  27  27 SW12      29.83F
THOMSON        SUNNY     61  34  36 S8G17     29.86F
WASHINGTON     FAIR      61  36  39 S8G17     29.81F
CLAXTON        FAIR      61  34  36 SW7G16    29.90S
SYLVANIA       CLEAR     60  35  38 SW7       29.88F
STATESBORO     SUNNY     61  33  35 SW9G17    29.88F
SAVANNAH       MOSUNNY   61  28  28 S10       29.90F


...SOUTHERN NORTH CAROLINA...

CITY           SKY/WX    TMP DP  RH WIND       PRES   REMARKS
CHARLOTTE      MOSUNNY   57  28  33 S15       29.80F
MONROE         SUNNY     57  30  35 S8        29.80F
WADESBORO      CLEAR     59  30  33 S7        29.82F
ROCKINGHAM       N/A     56  33  42 SE12      29.84F
RUTHERFORDTON  SUNNY     56  27  32 S16       29.77F
ASHEVILLE      SUNNY     53  27  36 S15G24    29.72F

$$



USA.gov is the U.S. government's official web portal to all federal, state and local government web resources and services.